DW1996 Weather Reports


Display with metric or nautical units.
time (UTC)temp
F
wind
direction
speed
MPH
gust
MPH
rain 1hr
in
rain 24hr
in
rain mn
in
humidity
%
barometer
mb
20260902043002 85 165 4.0 11.0 0.00 0.00 0.00 80 1013.8
20260902041502 85 164 3.0 11.0 0.00 0.00 0.00 79 1013.7
20260902040001 85 151 3.0 9.0 0.00 0.00 0.00 79 1013.5
20260902034600 85 165 2.0 10.0 0.00 0.00 0.00 79 1013.4
20260902033106 85 159 5.0 9.0 0.00 0.00 0.00 80 1013.4
20260902031559 85 138 5.0 9.0 0.00 0.00 0.00 80 1013.1
20260902030059 86 174 2.0 10.0 0.00 0.00 0.00 80 1013.0
20260902024601 86 146 4.0 10.0 0.00 0.00 0.00 80 1012.7
20260902023057 86 118 5.0 8.0 0.00 0.00 0.00 80 1012.3
20260902021557 86 140 4.0 11.0 0.00 0.00 0.00 80 1012.2
20260902020059 86 171 3.0 11.0 0.00 0.00 0.00 78 1011.9
20260902014556 86 143 5.0 12.0 0.00 0.00 0.00 78 1011.8
20260902013055 86 187 2.0 11.0 0.00 0.00 0.00 77 1011.5
20260902011554 86 109 4.0 11.0 0.00 0.00 0.00 77 1011.6
20260902010055 87 159 8.0 13.0 0.00 0.00 0.00 76 1011.5
20260902004553 87 165 6.0 15.0 0.00 0.00 0.00 75 1011.4
20260902003057 88 178 3.0 14.0 0.00 0.00 0.00 76 1011.3
20260902001552 88 184 6.0 15.0 0.00 0.00 0.00 74 1011.2
20260902000113 88 132 7.0 17.0 0.00 0.00 0.00 73 1011.2
20260901234551 89 139 7.0 17.0 0.00 0.00 0.00 72 1011.2
20260901233050 90 163 7.0 16.0 0.00 0.00 0.00 69 1011.2
20260901231552 91 130 8.0 16.0 0.00 0.00 0.00 69 1011.0
20260901230104 91 172 8.0 15.0 0.00 0.00 0.00 69 1011.0
20260901224549 91 180 7.0 17.0 0.00 0.00 0.00 67 1010.9
20260901223054 92 90 7.0 15.0 0.00 0.00 0.00 66 1010.8
20260901221547 92 114 6.0 16.0 0.00 0.00 0.00 66 1010.9
20260901220111 92 177 10.0 16.0 0.00 0.00 0.00 65 1011.0
20260901214545 93 151 9.0 16.0 0.00 0.00 0.00 63 1011.2
20260901213108 93 142 9.0 17.0 0.00 0.00 0.00 64 1011.1
20260901211544 94 149 6.0 13.0 0.00 0.00 0.00 63 1011.2
20260901210050 94 163 7.0 18.0 0.00 0.00 0.00 63 1011.3
20260901204541 93 111 7.0 18.0 0.00 0.00 0.00 63 1011.4
20260901203055 94 117 5.0 15.0 0.00 0.00 0.00 63 1011.7
20260901201537 93 148 9.0 17.0 0.00 0.00 0.00 63 1011.8
20260901200042 94 117 8.0 18.0 0.00 0.00 0.00 63 1012.0
20260901194540 93 136 8.0 20.0 0.00 0.00 0.00 65 1012.2
20260901193035 94 150 6.0 16.0 0.00 0.00 0.00 66 1012.4
20260901191530 94 119 4.0 17.0 0.00 0.00 0.00 64 1012.5
20260901190029 94 153 9.0 18.0 0.00 0.00 0.00 63 1012.6
20260901184532 94 125 7.0 16.0 0.00 0.00 0.00 62 1012.8
20260901183038 94 130 8.0 16.0 0.00 0.00 0.00 62 1012.9
20260901181526 95 130 8.0 15.0 0.00 0.00 0.00 62 1013.0
20260901180026 95 180 7.0 18.0 0.00 0.00 0.00 61 1013.2
20260901174524 95 135 5.0 16.0 0.00 0.00 0.00 61 1013.4
20260901173042 96 171 6.0 13.0 0.00 0.00 0.00 59 1013.5
20260901171522 97 177 5.0 14.0 0.00 0.00 0.00 51 1013.8
20260901170021 96 175 6.0 11.0 0.00 0.00 0.00 53 1013.8
20260901164519 96 198 5.0 13.0 0.00 0.00 0.00 54 1013.8
20260901163017 95 192 7.0 12.0 0.00 0.00 0.00 55 1014.0
20260901161514 94 193 7.0 11.0 0.00 0.00 0.00 57 1014.0
20260901160010 94 249 5.0 12.0 0.00 0.00 0.00 60 1013.8
20260901154506 92 188 6.0 14.0 0.00 0.00 0.00 61 1013.9
20260901153003 91 248 6.0 14.0 0.00 0.00 0.00 65 1013.7
20260901151611 90 169 7.0 13.0 0.00 0.00 0.00 66 1013.8
20260901150057 89 213 6.0 14.0 0.00 0.00 0.00 70 1013.8
20260901144554 89 188 6.0 12.0 0.00 0.00 0.00 71 1013.7
20260901143051 88 163 2.0 8.0 0.00 0.00 0.00 74 1013.8
20260901141548 87 187 3.0 8.0 0.00 0.00 0.00 75 1013.8
20260901140055 86 180 2.0 8.0 0.00 0.00 0.00 77 1013.8
20260901134557 85 184 3.0 7.0 0.00 0.00 0.00 80 1013.5
20260901133046 84 165 0.0 6.0 0.00 0.00 0.00 83 1013.3
20260901131542 82 190 1.0 5.0 0.00 0.00 0.00 86 1013.2
20260901130044 81 162 0.0 0.0 0.00 0.00 0.00 87 1013.1
20260901124539 80 172 0.0 0.0 0.00 0.00 0.00 87 1013.0
20260901123036 80 172 0.0 0.0 0.00 0.00 0.00 87 1012.9
20260901121535 80 202 0.0 0.0 0.00 0.00 0.00 87 1012.8
20260901120049 80 199 0.0 1.0 0.00 0.00 0.00 86 1012.7
20260901114533 80 193 0.0 4.0 0.00 0.00 0.00 86 1012.7
20260901113034 80 206 0.0 3.0 0.00 0.00 0.00 86 1012.7
20260901111533 80 202 0.0 3.0 0.00 0.00 0.00 86 1012.6
20260901110040 80 188 0.0 3.0 0.00 0.00 0.00 86 1012.7
20260901104530 80 198 0.0 4.0 0.00 0.00 0.00 86 1012.7
20260901103032 80 200 0.0 3.0 0.00 0.00 0.00 86 1012.6
20260901101532 80 210 0.0 1.0 0.00 0.00 0.00 86 1012.7
20260901100028 81 192 0.0 2.0 0.00 0.00 0.00 85 1012.8
20260901094528 81 213 1.0 3.0 0.00 0.00 0.00 85 1012.7
20260901093026 81 213 0.0 2.0 0.00 0.00 0.00 85 1012.7
20260901091525 81 209 0.0 5.0 0.00 0.00 0.00 85 1012.7
20260901090024 81 230 1.0 5.0 0.00 0.00 0.00 84 1012.6
20260901084522 81 212 0.0 4.0 0.00 0.00 0.00 83 1012.8
20260901083021 82 221 0.0 4.0 0.00 0.00 0.00 83 1012.8
20260901081519 82 202 1.0 5.0 0.00 0.00 0.00 83 1013.0
20260901080017 82 232 1.0 5.0 0.00 0.00 0.00 83 1013.0
20260901074515 83 178 1.0 5.0 0.00 0.00 0.00 83 1013.0
20260901073016 83 200 2.0 8.0 0.00 0.00 0.00 82 1012.9
20260901071522 83 207 1.0 6.0 0.00 0.00 0.00 82 1013.1
20260901070020 83 188 3.0 9.0 0.00 0.00 0.00 82 1013.2
20260901064514 83 169 3.0 6.0 0.00 0.00 0.00 81 1013.3
20260901063007 83 188 2.0 6.0 0.00 0.00 0.00 81 1013.4
20260901061507 83 188 4.0 7.0 0.00 0.00 0.00 81 1013.5
20260901060005 83 201 3.0 6.0 0.00 0.00 0.00 81 1013.6
20260901054510 84 168 3.0 6.0 0.00 0.00 0.00 81 1013.5
20260901053003 84 190 2.0 6.0 0.00 0.00 0.00 81 1013.6
20260901051501 84 192 3.0 6.0 0.00 0.00 0.00 80 1013.5
20260901050059 84 202 3.0 10.0 0.00 0.00 0.00 80 1013.6
20260901044608 84 195 3.0 7.0 0.00 0.00 0.00 80 1013.7